EW4214 Weather Reports


time (UTC)temp
C
wind
direction
speed
KPH
gust
KPH
rain 1hr
cm
rain 24hr
cm
rain mn
cm
humidity
%
barometer
mb
20260508053735 33 214 1.6 6.4 0.00 0.08 0.00 36 1007.9
20260508053404 33 231 3.2 6.4 0.00 0.08 0.00 36 1007.9
20260508051707 33 206 0.0 4.8 0.00 0.08 0.00 37 1008.2
20260508051357 33 200 0.0 6.4 0.00 0.08 0.00 36 1008.7
20260508045704 31 285 3.2 4.8 0.00 0.08 0.00 39 1008.8
20260508045149 32 212 1.6 4.8 0.00 0.08 0.00 39 1009.0
20260508044145 32 259 3.2 4.8 0.00 0.08 0.00 40 1009.2
20260508042703 32 158 0.0 3.2 0.00 0.08 0.00 41 1009.3
20260508041703 31 201 0.0 4.8 0.00 0.08 0.00 42 1009.4
20260508040703 31 167 0.0 4.8 0.00 0.08 0.00 42 1009.6
20260508035703 31 189 0.0 3.2 0.00 0.08 0.00 43 1009.8
20260508035352 30 166 0.0 4.8 0.00 0.08 0.00 44 1009.9
20260508035348 30 202 0.0 3.2 0.00 0.08 0.00 42 1009.9
20260508033634 31 205 1.6 4.8 0.00 0.08 0.00 43 1009.9
20260508031704 30 191 0.0 3.2 0.00 0.08 0.00 43 1009.9
20260508030704 30 154 1.6 3.2 0.00 0.08 0.00 45 1009.9
20260508030150 30 187 0.0 1.6 0.00 0.08 0.00 46 1010.0
20260508024703 30 198 0.0 1.6 0.00 0.08 0.00 46 1010.0
20260508023703 29 164 0.0 1.6 0.00 0.08 0.00 48 1010.0
20260508023630 28 207 0.0 4.8 0.00 0.08 0.00 50 1010.1
20260508021703 28 168 1.6 3.2 0.00 0.08 0.00 50 1010.1
20260508020703 28 172 0.0 1.6 0.00 0.08 0.00 51 1010.0
20260508015703 27 126 3.2 3.2 0.00 0.08 0.00 52 1010.1
20260508014703 27 198 0.0 4.8 0.00 0.08 0.00 54 1009.9
20260508013703 26 159 0.0 3.2 0.00 0.08 0.00 55 1009.9
20260508013153 26 163 0.0 1.6 0.00 0.08 0.00 55 1009.7
20260508012641 26 168 0.0 1.6 0.00 0.08 0.00 56 1009.7
20260508010702 25 184 0.0 1.6 0.00 0.08 0.00 57 1009.6
20260508010140 25 181 0.0 3.2 0.00 0.08 0.00 57 1009.4
20260508004703 25 174 0.0 1.6 0.00 0.08 0.00 58 1009.3
20260508004632 25 179 0.0 1.6 0.00 0.08 0.00 59 1009.2
20260508002658 24 174 1.6 1.6 0.00 0.08 0.00 60 1009.0
20260508001654 24 179 0.0 1.6 0.00 0.08 0.00 60 1008.9
20260508000654 23 179 0.0 0.0 0.00 0.08 0.00 61 1008.9
20260507235655 23 178 0.0 0.0 0.00 0.08 0.00 61 1008.8
20260507234656 23 180 0.0 1.6 0.00 0.08 0.00 62 1008.5
20260507233654 23 178 0.0 0.0 0.00 0.08 0.00 62 1008.5
20260507233145 23 187 0.0 0.0 0.00 0.08 0.00 62 1008.4
20260507231654 23 185 0.0 0.0 0.00 0.08 0.00 62 1008.5
20260507230656 22 184 0.0 0.0 0.00 0.08 0.00 63 1008.3
20260507230558 22 178 0.0 1.6 0.00 0.08 0.00 63 1008.3
20260507230552 22 184 0.0 0.0 0.00 0.08 0.00 62 1008.4
20260507223654 22 181 0.0 4.8 0.00 0.08 0.00 62 1008.2
20260507222656 22 166 1.6 1.6 0.00 0.08 0.00 63 1008.0
20260507221654 22 181 0.0 1.6 0.00 0.08 0.00 63 1008.0
20260507220655 22 184 0.0 0.0 0.00 0.08 0.00 62 1007.9
20260507215654 22 184 0.0 0.0 0.00 0.08 0.00 62 1007.9
20260507214857 22 186 0.0 0.0 0.00 0.08 0.00 62 1007.8
20260507214654 22 188 0.0 0.0 0.00 0.08 0.00 62 1007.7
20260507212823 22 185 0.0 0.0 0.00 0.08 0.00 62 1007.7
20260507211820 23 185 0.0 0.0 0.00 0.08 0.00 62 1007.7
20260507210816 23 185 0.0 0.0 0.00 0.08 0.00 61 1007.6
20260507205811 23 177 0.0 0.0 0.00 0.08 0.00 61 1007.6
20260507204809 23 176 0.0 3.2 0.00 0.08 0.00 61 1007.6
20260507203803 23 173 0.0 3.2 0.00 0.08 0.00 61 1007.6
20260507203308 23 180 0.0 3.2 0.00 0.08 0.00 61 1007.6
20260507201758 23 176 0.0 4.8 0.00 0.08 0.00 62 1007.5
20260507200756 22 149 1.6 3.2 0.00 0.08 0.00 62 1007.5
20260507195751 23 175 0.0 1.6 0.00 0.08 0.00 61 1007.5
20260507195258 23 176 0.0 1.6 0.00 0.08 0.00 61 1007.4
20260507193744 23 153 1.6 1.6 0.00 0.08 0.00 61 1007.6
20260507193250 23 175 0.0 1.6 0.00 0.08 0.00 62 1007.8
20260507191734 23 140 1.6 1.6 0.00 0.08 0.00 62 1008.0
20260507190731 23 175 0.0 1.6 0.00 0.08 0.00 62 1008.2
20260507190230 23 176 0.0 1.6 0.00 0.08 0.00 62 1008.2
20260507184723 23 176 0.0 1.6 0.00 0.08 0.00 62 1008.3
20260507183719 23 182 0.0 1.6 0.00 0.08 0.00 62 1008.5
20260507182716 23 177 0.0 0.0 0.00 0.08 0.00 62 1008.4
20260507181713 23 177 0.0 1.6 0.00 0.08 0.00 62 1008.6
20260507181209 23 180 0.0 0.0 0.00 0.08 0.00 62 1008.6
20260507175725 23 184 0.0 0.0 0.00 0.08 0.00 62 1008.6
20260507175705 23 183 0.0 0.0 0.00 0.08 0.00 62 1008.6
20260507173707 23 186 0.0 0.0 0.00 0.08 0.00 62 1008.7
20260507172711 23 164 0.0 1.6 0.00 0.08 0.00 62 1008.7
20260507172700 23 180 0.0 3.2 0.00 0.08 0.00 62 1008.6
20260507171156 23 182 0.0 1.6 0.00 0.08 0.08 62 1008.8
20260507170659 23 184 0.0 0.0 0.00 0.08 0.00 62 1008.7
20260507164652 23 178 0.0 1.6 0.00 0.08 0.08 62 1008.9
20260507163652 24 186 0.0 0.0 0.00 0.08 0.08 61 1009.0
20260507163148 23 188 0.0 0.0 0.00 0.08 0.08 62 1009.2
20260507161655 24 180 0.0 0.0 0.00 0.08 0.08 61 1009.5
20260507160652 24 181 0.0 1.6 0.00 0.08 0.08 61 1009.8
20260507160154 24 176 0.0 0.0 0.00 0.08 0.08 62 1009.7
20260507154651 24 189 0.0 0.0 0.00 0.08 0.08 62 1009.7
20260507153651 23 188 0.0 0.0 0.00 0.08 0.08 62 1009.9
20260507152653 24 188 0.0 0.0 0.00 0.08 0.08 62 1010.0
20260507152346 23 188 0.0 0.0 0.00 0.08 0.08 62 1009.9
20260507152339 24 188 0.0 0.0 0.00 0.08 0.08 61 1009.9
20260507145639 23 188 0.0 0.0 0.00 0.08 0.08 62 1009.7
20260507144640 23 184 0.0 1.6 0.08 0.08 0.08 62 1009.7
20260507144130 23 182 0.0 0.0 0.08 0.08 0.08 62 1009.9
20260507142639 23 180 0.0 0.0 0.08 0.08 0.08 62 1009.5
20260507142133 23 185 0.0 1.6 0.08 0.08 0.08 62 1009.6
20260507140639 23 178 0.0 14.5 0.08 0.08 0.08 63 1009.3
20260507135635 23 196 0.0 3.2 0.08 0.00 0.05 63 1009.2
20260507134632 22 172 0.0 3.2 0.00 0.00 0.00 63 1009.1
20260507133631 23 176 0.0 4.8 0.00 0.00 0.00 61 1008.8
20260507132634 23 172 0.0 3.2 0.00 0.00 0.00 62 1008.6
20260507131630 23 175 0.0 4.8 0.00 0.00 0.00 62 1008.3
20260507130631 21 172 0.0 0.0 0.00 0.00 0.00 79 1008.0
20260507125631 23 196 0.0 0.0 0.00 0.00 0.00 61 1007.7
20260507125112 23 192 0.0 0.0 0.00 0.00 0.00 61 1007.4
20260507123633 23 192 0.0 0.0 0.00 0.00 0.00 60 1007.2
20260507122630 23 178 0.0 0.0 0.00 0.00 0.00 61 1007.2
20260507122533 23 181 0.0 0.0 0.00 0.00 0.00 61 1006.8
20260507121818 23 184 0.0 0.0 0.00 0.00 0.00 61 1007.0
20260507115631 23 168 0.0 1.6 0.00 0.00 0.00 60 1006.6
20260507114630 23 177 0.0 3.2 0.00 0.00 0.00 60 1006.5
20260507113631 23 173 0.0 3.2 0.00 0.00 0.00 59 1006.7
20260507112630 23 169 1.6 6.4 0.00 0.00 0.00 60 1006.6
20260507111631 23 177 1.6 6.4 0.00 0.00 0.00 59 1006.8
20260507111117 23 148 1.6 9.7 0.00 0.00 0.00 60 1006.7
20260507105632 23 157 1.6 9.7 0.00 0.00 0.00 59 1006.7
20260507104632 22 174 0.0 4.8 0.00 0.00 0.00 60 1006.5
20260507103630 23 154 0.0 4.8 0.00 0.00 0.00 59 1006.3
20260507102631 23 153 0.0 3.2 0.00 0.00 0.00 59 1006.3
20260507101631 23 176 0.0 3.2 0.00 0.00 0.00 59 1006.2
20260507101111 23 174 0.0 3.2 0.00 0.00 0.00 59 1005.7